User: anonymous   Login
Location: Unspecified
(0.0000°N, 0.0000°E)
Time: 23:13:47
(UTC+01:00)
Language:

Iridium 4 Rocket - Orbit

View from above orbital plane
View from above orbital plane
View from above satellite
View from above satellite

Ground track
Ground track

The orbit data is extracted from the following two-line orbital elements,

1 24797U 97020F   14304.14877384  .00000805  00000-0  17113-3 0  8090
2 24797 086.8963 344.8074 0225284 276.9879 133.2012 14.43253201919435
Epoch (UTC): 31 October 2014 03:34:14
Eccentricity: 0.0225284
inclination: 86.8963°
perigee height: 587 km
apogee height: 908 km
right ascension of ascending node: 344.8074°
argument of perigee: 276.9879°
revolutions per day: 14.43253201
mean anomaly at epoch: 133.2012°
orbit number at epoch: 91943

The dashed part of the orbit path shows where the satellite is in the earth's shadow,  

DLR